TimeCST,TemperatureF,Dew PointF,Humidity,Sea Level PressureIn,VisibilityMPH,Wind Direction,Wind SpeedMPH,Gust SpeedMPH,PrecipitationIn,Events,Conditions,WindDirDegrees,DateUTC
12:15 AM,14.0,12.2,93,30.14,5.0,South,9.2,-,N/A,,Clear,190,2013-01-05 06:15:00
12:35 AM,14.0,10.4,86,30.13,5.0,South,5.8,-,N/A,,Clear,170,2013-01-05 06:35:00
12:55 AM,14.0,10.4,86,30.12,7.0,SSE,3.5,-,N/A,,Clear,150,2013-01-05 06:55:00
1:15 AM,12.2,8.6,85,30.12,4.0,SE,4.6,-,N/A,,Clear,130,2013-01-05 07:15:00
1:35 AM,12.2,8.6,85,30.11,4.0,South,5.8,-,N/A,,Clear,170,2013-01-05 07:35:00
1:55 AM,12.2,10.4,92,30.11,5.0,SSE,6.9,-,N/A,,Clear,160,2013-01-05 07:55:00
2:15 AM,12.2,8.6,85,30.11,6.0,South,8.1,-,N/A,,Clear,170,2013-01-05 08:15:00
2:35 AM,12.2,8.6,85,30.11,6.0,South,8.1,-,N/A,,Clear,170,2013-01-05 08:35:00
2:55 AM,12.2,8.6,85,30.11,7.0,SSE,8.1,-,N/A,,Clear,160,2013-01-05 08:55:00
3:15 AM,14.0,10.4,86,30.10,7.0,South,9.2,-,N/A,,Clear,170,2013-01-05 09:15:00
3:35 AM,14.0,10.4,86,30.08,6.0,SSE,6.9,-,N/A,,Clear,160,2013-01-05 09:35:00
3:55 AM,14.0,10.4,86,30.07,6.0,SSE,8.1,-,N/A,,Clear,150,2013-01-05 09:55:00
4:15 AM,14.0,10.4,86,30.07,-9999.0,South,9.2,-,N/A,,Unknown,170,2013-01-05 10:15:00
4:35 AM,14.0,10.4,86,30.07,6.0,South,8.1,-,N/A,,Clear,170,2013-01-05 10:35:00
4:55 AM,12.2,8.6,85,30.08,6.0,South,9.2,-,N/A,,Partly Cloudy,170,2013-01-05 10:55:00
5:15 AM,14.0,10.4,86,30.06,6.0,SSE,8.1,-,N/A,,Scattered Clouds,160,2013-01-05 11:15:00
5:35 AM,14.0,12.2,93,30.06,6.0,SSE,8.1,-,N/A,,Mostly Cloudy,160,2013-01-05 11:35:00
5:55 AM,14.0,10.4,86,30.06,6.0,South,8.1,-,N/A,,Mostly Cloudy,170,2013-01-05 11:55:00
6:15 AM,14.0,10.4,86,30.06,6.0,South,9.2,-,N/A,,Scattered Clouds,180,2013-01-05 12:15:00
6:35 AM,15.8,12.2,86,30.04,6.0,SSE,8.1,-,N/A,,Mostly Cloudy,160,2013-01-05 12:35:00
6:55 AM,17.6,14.0,86,30.04,6.0,South,10.4,-,N/A,,Mostly Cloudy,170,2013-01-05 12:55:00
7:15 AM,15.8,14.0,93,30.03,5.0,South,9.2,-,N/A,,Partly Cloudy,170,2013-01-05 13:15:00
7:35 AM,15.8,12.2,86,30.03,4.0,South,8.1,-,N/A,,Partly Cloudy,180,2013-01-05 13:35:00
7:55 AM,14.0,12.2,93,30.02,3.0,SSE,10.4,-,N/A,,Clear,160,2013-01-05 13:55:00
8:15 AM,15.8,14.0,93,30.02,3.0,South,8.1,-,N/A,,Clear,170,2013-01-05 14:15:00
8:35 AM,17.6,14.0,86,30.02,3.0,South,13.8,-,N/A,,Scattered Clouds,170,2013-01-05 14:35:00
8:55 AM,17.6,15.8,93,30.03,3.0,South,16.1,-,N/A,,Mostly Cloudy,180,2013-01-05 14:55:00
9:15 AM,19.4,15.8,86,30.03,3.0,South,11.5,-,N/A,,Mostly Cloudy,190,2013-01-05 15:15:00
9:55 AM,21.2,17.6,86,30.03,5.0,SSW,9.2,-,N/A,,Partly Cloudy,200,2013-01-05 15:55:00
10:15 AM,21.2,17.6,86,30.01,5.0,South,12.7,-,N/A,,Clear,190,2013-01-05 16:15:00
10:55 AM,23.0,19.4,86,30.00,6.0,SSW,11.5,-,N/A,,Partly Cloudy,200,2013-01-05 16:55:00
11:15 AM,26.6,23.0,86,29.99,7.0,South,16.1,-,N/A,,Clear,190,2013-01-05 17:15:00
11:55 AM,28.4,23.0,80,29.95,9.0,SSW,18.4,-,N/A,,Clear,200,2013-01-05 17:55:00
12:15 PM,30.2,23.0,75,29.94,9.0,SSW,18.4,25.3,N/A,,Clear,210,2013-01-05 18:15:00
12:35 PM,30.2,24.8,80,29.92,9.0,SSW,16.1,-,N/A,,Clear,210,2013-01-05 18:35:00
12:55 PM,30.2,24.8,80,29.91,9.0,SSW,13.8,20.7,N/A,,Clear,210,2013-01-05 18:55:00
1:15 PM,30.2,24.8,80,29.90,9.0,SSW,13.8,19.6,N/A,,Clear,210,2013-01-05 19:15:00
1:35 PM,32.0,26.6,80,29.90,10.0,SW,16.1,24.2,N/A,,Scattered Clouds,230,2013-01-05 19:35:00
1:55 PM,32.0,26.6,80,29.89,10.0,SW,13.8,20.7,N/A,,Overcast,220,2013-01-05 19:55:00
2:15 PM,32.0,26.6,80,29.89,10.0,SW,13.8,-,N/A,,Overcast,230,2013-01-05 20:15:00
2:35 PM,32.0,26.6,80,29.88,10.0,SW,10.4,18.4,N/A,,Overcast,220,2013-01-05 20:35:00
2:55 PM,32.0,26.6,80,29.88,10.0,SW,13.8,-,N/A,,Overcast,230,2013-01-05 20:55:00
3:15 PM,32.0,26.6,80,29.88,10.0,WSW,17.3,-,N/A,,Overcast,240,2013-01-05 21:15:00
3:35 PM,32.0,26.6,80,29.88,10.0,WSW,13.8,20.7,N/A,,Mostly Cloudy,240,2013-01-05 21:35:00
3:55 PM,32.0,24.8,75,29.88,9.0,WSW,18.4,26.5,N/A,,Partly Cloudy,240,2013-01-05 21:55:00
4:15 PM,30.2,24.8,80,29.88,9.0,WSW,16.1,21.9,N/A,,Clear,240,2013-01-05 22:15:00
4:55 PM,28.4,23.0,80,29.89,-9999.0,WSW,16.1,25.3,N/A,,Scattered Clouds,250,2013-01-05 22:55:00
5:15 PM,26.6,21.2,80,29.89,9.0,West,18.4,-,N/A,,Scattered Clouds,260,2013-01-05 23:15:00
5:35 PM,24.8,19.4,80,29.90,10.0,West,13.8,21.9,N/A,,Clear,260,2013-01-05 23:35:00
5:55 PM,24.8,17.6,74,29.91,10.0,West,15.0,-,N/A,,Clear,270,2013-01-05 23:55:00
6:15 PM,23.0,17.6,80,29.92,10.0,West,13.8,-,N/A,,Partly Cloudy,270,2013-01-06 00:15:00
6:35 PM,23.0,17.6,80,29.92,10.0,West,11.5,-,N/A,,Partly Cloudy,270,2013-01-06 00:35:00
6:55 PM,21.2,17.6,86,29.93,10.0,West,12.7,-,N/A,,Clear,280,2013-01-06 00:55:00
7:15 PM,21.2,17.6,86,29.93,10.0,West,12.7,-,N/A,,Mostly Cloudy,270,2013-01-06 01:15:00
7:55 PM,19.4,15.8,86,29.94,10.0,West,11.5,-,N/A,,Partly Cloudy,280,2013-01-06 01:55:00
8:15 PM,19.4,15.8,86,29.95,10.0,West,11.5,-,N/A,,Clear,280,2013-01-06 02:15:00
8:35 PM,17.6,14.0,86,29.95,10.0,WNW,9.2,-,N/A,,Clear,290,2013-01-06 02:35:00
8:55 PM,17.6,14.0,86,29.95,10.0,WNW,9.2,-,N/A,,Clear,290,2013-01-06 02:55:00
9:15 PM,17.6,12.2,79,29.95,10.0,WNW,9.2,-,N/A,,Clear,290,2013-01-06 03:15:00
9:35 PM,17.6,12.2,79,29.96,10.0,WNW,11.5,-,N/A,,Clear,290,2013-01-06 03:35:00
9:55 PM,17.6,12.2,79,29.97,10.0,WNW,12.7,-,N/A,,Clear,300,2013-01-06 03:55:00
10:15 PM,17.6,12.2,79,29.98,10.0,WNW,16.1,-,N/A,,Partly Cloudy,300,2013-01-06 04:15:00
10:35 PM,15.8,10.4,79,29.98,10.0,WNW,12.7,-,N/A,,Mostly Cloudy,300,2013-01-06 04:35:00
10:55 PM,15.8,10.4,79,29.98,10.0,WNW,10.4,-,N/A,,Mostly Cloudy,300,2013-01-06 04:55:00
11:15 PM,15.8,10.4,79,29.99,10.0,WNW,11.5,-,N/A,,Scattered Clouds,290,2013-01-06 05:15:00
11:35 PM,14.0,8.6,79,30.01,10.0,WNW,15.0,-,N/A,,Scattered Clouds,290,2013-01-06 05:35:00
11:55 PM,14.0,8.6,79,30.01,9.0,WNW,17.3,23.0,N/A,,Mostly Cloudy,300,2013-01-06 05:55:00